This is the latest recevied weather packets stored in our database for station/object K5KVN. If no packets are shown the sender has not sent any weather packets the latest 10 day(s).
| Time | Temp. | Humidity | Pressure | Rain* | Wind** | Luminosity | Snow |
|---|---|---|---|---|---|---|---|
| 1777333912 | 26.67° C | 67% | 1008.2 hPa | 0 mm | - | - | - |
| 1777333313 | 27.22° C | 66% | 1007.7 hPa | 0 mm | - | - | - |
| 1777332713 | 27.22° C | 66% | 1007.6 hPa | 0 mm | - | - | - |
| 1777332113 | 27.78° C | 65% | 1007.3 hPa | 0 mm | - | - | - |
| 1777331513 | 27.78° C | 65% | 1007.3 hPa | 0 mm | - | - | - |
| 1777330911 | 27.78° C | 66% | 1007.2 hPa | 0 mm | - | - | - |
| 1777330312 | 27.78° C | 64% | 1007.1 hPa | 0 mm | - | - | - |
| 1777329712 | 28.33° C | 63% | 1007.1 hPa | 0 mm | - | - | - |
| 1777329108 | 28.33° C | 63% | 1006.9 hPa | 0 mm | - | - | - |
| 1777328512 | 28.89° C | 63% | 1006.7 hPa | 0 mm | - | - | - |
| 1777327909 | 28.89° C | 60% | 1006.4 hPa | 0 mm | - | - | - |
| 1777327309 | 28.89° C | 64% | 1006.1 hPa | 0 mm | - | - | - |
| 1777326709 | 28.89° C | 61% | 1006.2 hPa | 0 mm | - | - | - |
| 1777326108 | 28.89° C | 64% | 1006.1 hPa | 0 mm | - | - | - |
| 1777325508 | 28.89° C | 67% | 1006.1 hPa | 0 mm | - | - | - |
| 1777324908 | 28.33° C | 66% | 1006.3 hPa | 0 mm | - | - | - |
| 1777324308 | 28.33° C | 64% | 1006.4 hPa | 0 mm | - | - | - |
| 1777323704 | 28.89° C | 65% | 1006.5 hPa | 0 mm | - | - | - |
| 1777323104 | 28.89° C | 64% | 1006.7 hPa | 0 mm | - | - | - |
| 1777322564 | 28.89° C | 66% | 1006.8 hPa | 0 mm | - | - | - |
| 1777321904 | 29.44° C | 69% | 1006.8 hPa | 0 mm | - | - | - |
| 1777321358 | 29.44° C | 68% | 1006.7 hPa | 0 mm | - | - | - |
| 1777320698 | 28.89° C | 69% | 1006.5 hPa | 0 mm | - | - | - |
| 1777320098 | 28.89° C | 66% | 1006.5 hPa | 0 mm | - | - | - |
| 1777319498 | 28.33° C | 70% | 1006.7 hPa | 0 mm | - | - | - |
* Rain latest hour (hover to see other rain measurements)
** Current wind speed in m/s (hover to see current wind gust speed)